{"data":{"norad_id":42907,"epoch":"2026-09-19T05:12:35.426016Z","epoch_age_seconds":136534,"freshness":"FRESH","line1":"1 42907U 17046A   26262.21707669  .00000133  00000+0  00000+0 0  9991","line2":"2 42907   0.0249 121.5461 0000813 137.3201 222.4103  1.00270105 33341","mean_motion":1.00270105,"eccentricity":8.13e-5,"inclination_deg":0.0249,"raan_deg":121.5461,"arg_perigee_deg":137.3201,"mean_anomaly_deg":222.4103,"bstar":0,"rev_number":3334,"period_min":1436.1209654662,"perigee_km":35783.637901754,"apogee_km":35790.493963751,"semimajor_km":42165.202932752,"source":"CELESTRAK","updated_at":"2026-09-20T09:00:35.255658Z"}}